Location: Aragoneses
(41.0275°N, 4.3847°W)
Time: 16:47:05
(UTC+00:00)

Cosmos 1980 Rocket - Pass Details

Date: 11 December 2025
Orbit: 830 x 847 km, 71.0° (Epoch: 16 January)

Event Time Altitude Azimuth Distance (km) Brightness Sun altitude
Rises 18:06:45 0° 194° (SSW) 3,386 5.8 -14.1°
Reaches altitude 10° 18:09:12 10° 192° (SSW) 2,453 5.0 -14.6°
Maximum altitude 18:14:47 69° 110° (ESE) 900 2.1 -15.6°
Enters shadow 18:19:25 15° 30° (NNE) 2,103 3.8 -16.4°
